KLM867 EHAM-RJBB

Flight info

Callsign KLM867
Flight time N/A
Altitude 27000
Route ARNEM L620 HMM DCT NOMKA DCT OMELO DCT PEPIK/N0483F290 DCT BUDOP DCT LUGEB DCT UDROS UM859 KARDE UN644 ROLIN DCT TAGAR/N0480F310 DCT BT DCT BARAD M747 SUBUT T916 BALUN/K0893F310 T916 MIHOS/K0891F330 T916 PIGAL M610 RULAD/K0887S1010 A343 POSOT B215 FKG W188 LIKMI W270 DKO/K0874S1070 W69 HUR B339 LADIX W34 VAPGU W100 MUDOT DCT UNSEK A326 DONVO G597 AGAVO/N0473F350 Y644 EGOBA Y697 LANAT Y597 MIHOU Y361 SAEKI/N0477F360 Y36 ATMUG
Aircraft MD11/H-SDE1E2E3FGHIJ2J3J4J5M1RWXY/LB1D1

Departure

Time 2026-04-29 12:51
Airport Amsterdam Airport Schiphol (EHAM)

Arrival

Time N/A
Airport Kansai International Airport (RJBB)
Time Latitude Longitude Altitude Speed Heading
2026-04-29 11:31 52.30979 4.76928 3 ft 0 kts 139°
2026-04-29 12:32 52.30984 4.76920 3 ft 2 kts 139°
2026-04-29 12:32 52.30995 4.76904 3 ft 2 kts 139°
2026-04-29 12:32 52.31006 4.76888 3 ft 2 kts 139°
2026-04-29 12:32 52.31017 4.76872 3 ft 2 kts 139°
2026-04-29 12:33 52.31029 4.76855 2 ft 2 kts 139°
2026-04-29 12:33 52.31038 4.76841 2 ft 1 kts 114°
2026-04-29 12:33 52.31039 4.76822 3 ft 1 kts 57°
2026-04-29 12:33 52.31030 4.76803 3 ft 2 kts 56°
2026-04-29 12:34 52.31025 4.76790 3 ft 1 kts 59°
2026-04-29 12:37 52.31027 4.76795 3 ft 2 kts 59°
2026-04-29 12:37 52.31046 4.76829 3 ft 6 kts 37°
2026-04-29 12:37 52.31097 4.76884 2 ft 10 kts 33°
2026-04-29 12:37 52.31162 4.76953 3 ft 11 kts 33°
2026-04-29 12:38 52.31229 4.77025 2 ft 11 kts 34°
2026-04-29 12:38 52.31294 4.77099 3 ft 11 kts 35°
2026-04-29 12:38 52.31359 4.77169 2 ft 11 kts 28°
2026-04-29 12:38 52.31426 4.77194 3 ft 9 kts
2026-04-29 12:39 52.31491 4.77200 2 ft 9 kts
2026-04-29 12:39 52.31554 4.77184 2 ft 8 kts 315°
2026-04-29 12:39 52.31567 4.77084 3 ft 10 kts 269°
2026-04-29 12:39 52.31564 4.76955 2 ft 12 kts 267°
2026-04-29 12:40 52.31559 4.76797 3 ft 15 kts 266°
2026-04-29 12:40 52.31552 4.76607 2 ft 18 kts 267°
2026-04-29 12:40 52.31544 4.76389 2 ft 20 kts 267°
2026-04-29 12:40 52.31536 4.76152 2 ft 21 kts 267°
2026-04-29 12:41 52.31527 4.75896 3 ft 23 kts 267°
2026-04-29 12:41 52.31518 4.75620 3 ft 25 kts 267°
2026-04-29 12:41 52.31508 4.75321 3 ft 26 kts 267°
2026-04-29 12:41 52.31498 4.75011 3 ft 28 kts 267°
2026-04-29 12:42 52.31486 4.74685 3 ft 29 kts 266°
2026-04-29 12:42 52.31477 4.74413 3 ft 13 kts 267°
2026-04-29 12:42 52.31484 4.74305 3 ft 7 kts 310°
2026-04-29 12:42 52.31542 4.74294 2 ft 10 kts
2026-04-29 12:43 52.31622 4.74302 2 ft 13 kts
2026-04-29 12:43 52.31727 4.74312 3 ft 17 kts
2026-04-29 12:43 52.31863 4.74323 3 ft 20 kts
2026-04-29 12:43 52.31980 4.74334 2 ft 15 kts 359°
2026-04-29 12:44 52.32031 4.74212 2 ft 15 kts 275°
2026-04-29 12:44 52.32038 4.74029 3 ft 17 kts 273°
2026-04-29 12:44 52.32045 4.73811 2 ft 20 kts 273°
2026-04-29 12:44 52.32054 4.73552 2 ft 24 kts 273°
2026-04-29 12:45 52.32117 4.73311 3 ft 24 kts 319°
2026-04-29 12:45 52.32249 4.73125 3 ft 26 kts 319°
2026-04-29 12:45 52.32395 4.72920 3 ft 29 kts 320°
2026-04-29 12:45 52.32562 4.72685 3 ft 33 kts 320°
2026-04-29 12:46 52.32729 4.72421 3 ft 33 kts 311°
2026-04-29 12:46 52.32879 4.72143 3 ft 32 kts 311°
2026-04-29 12:46 52.33027 4.71868 3 ft 31 kts 311°
2026-04-29 12:46 52.33129 4.71675 2 ft 17 kts 309°
2026-04-29 12:47 52.33134 4.71499 3 ft 16 kts 234°
2026-04-29 12:47 52.33053 4.71372 3 ft 16 kts 222°
2026-04-29 12:47 52.32970 4.71253 2 ft 15 kts 221°
2026-04-29 12:47 52.32892 4.71141 2 ft 13 kts 224°
2026-04-29 12:48 52.32862 4.71007 2 ft 12 kts 272°
2026-04-29 12:48 52.32866 4.70921 2 ft 3 kts 274°
2026-04-29 12:48 52.32875 4.70894 2 ft 2 kts 329°
2026-04-29 12:48 52.32893 4.70887 2 ft 2 kts 359°
2026-04-29 12:49 52.32897 4.70887 2 ft 0 kts
2026-04-29 12:49 52.32898 4.70887 2 ft 0 kts
2026-04-29 12:49 52.32922 4.70888 3 ft 19 kts
2026-04-29 12:50 52.33278 4.70918 3 ft 81 kts
2026-04-29 12:50 52.34034 4.70986 3 ft 134 kts
2026-04-29 12:50 52.35120 4.71082 5 ft 177 kts
2026-04-29 12:50 52.36385 4.71203 269 ft 177 kts 10°
2026-04-29 12:51 52.37608 4.71420 627 ft 182 kts 12°
2026-04-29 12:51 52.38866 4.71594 1027 ft 183 kts
2026-04-29 12:51 52.40128 4.71662 1419 ft 185 kts
2026-04-29 12:51 52.41422 4.71741 1701 ft 186 kts 14°
2026-04-29 12:52 52.42668 4.72224 1866 ft 182 kts 30°
2026-04-29 12:52 52.43806 4.73140 2024 ft 184 kts 36°
2026-04-29 12:52 52.44924 4.74247 2168 ft 191 kts 38°
2026-04-29 12:52 52.46059 4.75507 2285 ft 201 kts 43°
2026-04-29 12:53 52.47102 4.77090 2375 ft 213 kts 53°
2026-04-29 12:53 52.47935 4.79171 2485 ft 225 kts 71°
2026-04-29 12:53 52.48340 4.81730 2686 ft 241 kts 82°
2026-04-29 12:53 52.48523 4.84539 3052 ft 254 kts 86°
2026-04-29 12:54 52.48584 4.87242 3425 ft 267 kts 93°
2026-04-29 12:54 52.48225 4.90254 3976 ft 276 kts 108°
2026-04-29 12:54 52.47292 4.93035 4555 ft 286 kts 126°
2026-04-29 12:54 52.45845 4.95285 5187 ft 295 kts 138°
2026-04-29 12:55 52.44175 4.97249 5811 ft 301 kts 142°
2026-04-29 12:55 52.42414 4.99128 6457 ft 305 kts 142°
2026-04-29 12:55 52.40811 5.01359 7072 ft 299 kts 121°
2026-04-29 12:55 52.39955 5.04347 7684 ft 295 kts 98°
2026-04-29 12:56 52.39925 5.07688 8278 ft 295 kts 78°
2026-04-29 12:56 52.40469 5.10909 8811 ft 301 kts 69°
2026-04-29 12:56 52.41279 5.14088 9388 ft 307 kts 65°
2026-04-29 12:56 52.42209 5.17243 10035 ft 310 kts 63°
2026-04-29 12:57 52.43213 5.20446 10381 ft 325 kts 62°
2026-04-29 12:57 52.44244 5.23641 10466 ft 346 kts 62°
2026-04-29 12:57 52.45415 5.27227 10852 ft 359 kts 62°
2026-04-29 12:57 52.46594 5.30839 11433 ft 366 kts 62°
2026-04-29 12:58 52.47788 5.34520 12057 ft 370 kts 62°
2026-04-29 12:58 52.48994 5.38271 12664 ft 371 kts 62°
2026-04-29 12:58 52.50153 5.42079 12835 ft 376 kts 69°
2026-04-29 12:58 52.50652 5.46242 13531 ft 375 kts 88°
2026-04-29 12:59 52.50343 5.50464 14041 ft 386 kts 103°
2026-04-29 12:59 52.49202 5.54504 14671 ft 395 kts 121°
2026-04-29 12:59 52.47350 5.57871 15176 ft 407 kts 137°
2026-04-29 12:59 52.45022 5.60523 15723 ft 414 kts 143°
2026-04-29 13:00 52.42600 5.63071 16233 ft 419 kts 142°
2026-04-29 13:00 52.40222 5.65831 16828 ft 421 kts 139°
2026-04-29 13:00 52.37930 5.68781 17376 ft 425 kts 137°
2026-04-29 13:00 52.35672 5.71856 17934 ft 428 kts 136°
2026-04-29 13:01 52.33405 5.74999 18480 ft 432 kts 136°
2026-04-29 13:01 52.31109 5.78160 19048 ft 436 kts 136°
2026-04-29 13:01 52.28764 5.81369 19613 ft 438 kts 136°
2026-04-29 13:01 52.26456 5.84522 20152 ft 441 kts 136°
2026-04-29 13:02 52.24103 5.87744 20675 ft 444 kts 136°
2026-04-29 13:02 52.21715 5.91015 21238 ft 446 kts 136°
2026-04-29 13:02 52.19366 5.94246 21733 ft 449 kts 135°
2026-04-29 13:02 52.16976 5.97537 22263 ft 452 kts 135°
2026-04-29 13:03 52.14572 6.00847 22769 ft 454 kts 135°
2026-04-29 13:03 52.12296 6.04321 23217 ft 452 kts 126°
2026-04-29 13:03 52.10461 6.08407 23704 ft 447 kts 115°
2026-04-29 13:03 52.09161 6.12995 24178 ft 444 kts 104°
2026-04-29 13:04 52.08393 6.17803 24687 ft 441 kts 97°
2026-04-29 13:04 52.07899 6.22683 25129 ft 443 kts 95°
2026-04-29 13:04 52.07465 6.27644 25607 ft 445 kts 95°
2026-04-29 13:04 52.07006 6.32590 26091 ft 447 kts 95°
2026-04-29 13:05 52.06502 6.37547 26545 ft 449 kts 96°
2026-04-29 13:05 52.05968 6.42555 26929 ft 448 kts 96°
2026-04-29 13:05 52.05427 6.47516 26916 ft 447 kts 96°
2026-04-29 13:05 52.04886 6.52475 26959 ft 447 kts 96°
2026-04-29 13:06 52.04343 6.57493 27256 ft 450 kts 96°
2026-04-29 13:06 52.03806 6.62510 27657 ft 453 kts 95°
2026-04-29 13:06 52.03281 6.67524 28130 ft 453 kts 96°
2026-04-29 13:06 52.02731 6.72510 28728 ft 451 kts 97°
2026-04-29 13:07 52.02118 6.77432 29186 ft 449 kts 98°
2026-04-29 13:07 52.00668 6.87221 29282 ft 444 kts 100°
2026-04-29 13:08 51.99123 6.96862 29339 ft 445 kts 99°
2026-04-29 13:08 51.97596 7.06601 29350 ft 448 kts 100°
2026-04-29 13:09 51.95943 7.16338 29353 ft 449 kts 101°
2026-04-29 13:09 51.94118 7.25987 29355 ft 449 kts 102°
2026-04-29 13:10 51.92289 7.35658 29360 ft 449 kts 102°
2026-04-29 13:10 51.90474 7.45240 29359 ft 448 kts 102°
2026-04-29 13:11 51.88672 7.54815 29361 ft 448 kts 101°
2026-04-29 13:11 51.86907 7.64234 29357 ft 448 kts 101°
2026-04-29 13:12 51.85298 7.73862 29361 ft 447 kts 98°
2026-04-29 13:12 51.84026 7.83146 29361 ft 447 kts 98°
2026-04-29 13:13 51.82641 7.92878 29366 ft 447 kts 98°
2026-04-29 13:13 51.81226 8.02647 29359 ft 446 kts 98°
2026-04-29 13:14 51.79827 8.12332 29353 ft 446 kts 98°
2026-04-29 13:14 51.78433 8.22051 29347 ft 446 kts 97°
2026-04-29 13:15 51.77052 8.31745 29345 ft 446 kts 97°
2026-04-29 13:15 51.75682 8.41435 29346 ft 446 kts 97°
2026-04-29 13:16 51.74309 8.51179 29349 ft 447 kts 97°
2026-04-29 13:16 51.72945 8.60921 29350 ft 446 kts 96°
2026-04-29 13:17 51.71598 8.70610 29355 ft 447 kts 97°
2026-04-29 13:17 51.70255 8.80352 29350 ft 448 kts 97°
2026-04-29 13:18 51.68926 8.90073 29356 ft 448 kts 96°
2026-04-29 13:18 51.67590 8.99879 29352 ft 448 kts 96°
2026-04-29 13:19 51.66276 9.09631 29363 ft 448 kts 96°
2026-04-29 13:19 51.64841 9.19349 29369 ft 449 kts 98°
2026-04-29 13:20 51.63282 9.29071 29364 ft 449 kts 98°
2026-04-29 13:20 51.61741 9.38784 29368 ft 449 kts 97°
2026-04-29 13:21 51.60235 9.48457 29373 ft 449 kts 97°
2026-04-29 13:21 51.58741 9.58114 29367 ft 448 kts 97°
2026-04-29 13:22 51.57247 9.67825 29372 ft 448 kts 97°
2026-04-29 13:22 51.55771 9.77476 29378 ft 449 kts 97°
2026-04-29 13:23 51.54287 9.87209 29377 ft 448 kts 97°
2026-04-29 13:23 51.52820 9.96881 29383 ft 448 kts 97°
2026-04-29 13:24 51.51361 10.06552 29380 ft 448 kts 97°
2026-04-29 13:24 51.49906 10.16310 29377 ft 448 kts 97°
2026-04-29 13:25 51.48461 10.26016 29373 ft 448 kts 97°
2026-04-29 13:25 51.46310 10.40582 29373 ft 450 kts 96°
2026-04-29 13:26 51.44768 10.50341 29373 ft 452 kts 98°
2026-04-29 13:26 51.43247 10.60092 29364 ft 452 kts 97°
2026-04-29 13:27 51.41652 10.69738 29373 ft 454 kts 98°
2026-04-29 13:27 51.40011 10.79441 29367 ft 455 kts 98°
2026-04-29 13:28 51.38350 10.89290 29367 ft 456 kts 98°
2026-04-29 13:28 51.36722 10.99017 29366 ft 457 kts 98°
2026-04-29 13:29 51.35084 11.08850 29368 ft 457 kts 98°
2026-04-29 13:29 51.33464 11.18640 29379 ft 457 kts 98°
2026-04-29 13:30 51.31850 11.28431 29374 ft 457 kts 98°
2026-04-29 13:30 51.30249 11.38200 29371 ft 457 kts 98°
2026-04-29 13:31 51.28658 11.47947 29378 ft 457 kts 98°
2026-04-29 13:31 51.27063 11.57799 29384 ft 459 kts 98°
2026-04-29 13:32 51.25491 11.67578 29385 ft 460 kts 98°
2026-04-29 13:32 51.23930 11.77311 29391 ft 461 kts 98°
2026-04-29 13:33 51.22310 11.87173 29388 ft 462 kts 100°
2026-04-29 13:33 51.20508 11.96996 29393 ft 464 kts 100°
2026-04-29 13:34 51.18686 12.06859 29390 ft 465 kts 100°
2026-04-29 13:34 51.16901 12.16700 29387 ft 466 kts 100°
2026-04-29 13:35 51.15117 12.26619 29381 ft 466 kts 100°
2026-04-29 13:35 51.13344 12.36536 29385 ft 465 kts 99°
2026-04-29 13:36 51.11586 12.46408 29385 ft 465 kts 99°
2026-04-29 13:36 51.09837 12.56270 29387 ft 466 kts 99°
2026-04-29 13:37 51.08081 12.66194 29387 ft 468 kts 100°
2026-04-29 13:37 51.06358 12.76042 29387 ft 468 kts 100°
2026-04-29 13:38 51.04616 12.85998 29378 ft 468 kts 100°
2026-04-29 13:38 51.02887 12.95992 29371 ft 468 kts 100°
2026-04-29 13:39 51.01173 13.05889 29373 ft 469 kts 99°
2026-04-29 13:39 50.99404 13.15844 29372 ft 472 kts 101°
2026-04-29 13:40 50.97469 13.25812 29368 ft 473 kts 101°
2026-04-29 13:40 50.95552 13.35762 29360 ft 474 kts 101°
2026-04-29 13:41 50.93677 13.45719 29353 ft 475 kts 101°
2026-04-29 13:41 50.91796 13.55699 29347 ft 474 kts 101°
2026-04-29 13:42 50.89925 13.65718 29350 ft 476 kts 101°
2026-04-29 13:42 50.88061 13.75717 29341 ft 477 kts 101°
2026-04-29 13:43 50.86199 13.85736 29331 ft 479 kts 102°
2026-04-29 13:43 50.84219 13.95815 29339 ft 484 kts 107°
2026-04-29 13:44 50.80798 14.05104 29368 ft 496 kts 126°
2026-04-29 13:44 50.75898 14.12900 29351 ft 504 kts 133°
2026-04-29 13:45 50.70789 14.20441 29347 ft 504 kts 132°
2026-04-29 13:45 50.65796 14.28182 29342 ft 505 kts 131°
2026-04-29 13:46 50.60796 14.35948 29343 ft 507 kts 131°
2026-04-29 13:46 50.55788 14.43728 29342 ft 508 kts 131°
2026-04-29 13:47 50.50771 14.51550 29344 ft 509 kts 131°
2026-04-29 13:47 50.45751 14.59365 29342 ft 509 kts 131°
2026-04-29 13:48 50.40762 14.67166 29340 ft 510 kts 132°
2026-04-29 13:48 50.35768 14.74951 29335 ft 511 kts 132°
2026-04-29 13:49 50.30731 14.82849 29332 ft 512 kts 133°
2026-04-29 13:49 50.25721 14.90677 29332 ft 512 kts 132°
2026-04-29 13:50 50.20720 14.98532 29340 ft 514 kts 133°
2026-04-29 13:50 50.15586 15.06333 29346 ft 515 kts 134°
2026-04-29 13:51 50.10412 15.13987 29348 ft 515 kts 134°
2026-04-29 13:51 50.05243 15.21686 29349 ft 515 kts 134°
2026-04-29 13:52 50.00096 15.29407 29352 ft 517 kts 134°
2026-04-29 13:52 49.94970 15.37093 29340 ft 518 kts 134°
2026-04-29 13:53 49.89796 15.44860 29335 ft 519 kts 134°
2026-04-29 13:53 49.84650 15.52593 29319 ft 519 kts 134°
2026-04-29 13:54 49.79492 15.60354 29311 ft 520 kts 134°
2026-04-29 13:54 49.74329 15.68138 29301 ft 521 kts 135°
2026-04-29 13:55 49.69148 15.75941 29294 ft 522 kts 135°
2026-04-29 13:55 49.63972 15.83765 29278 ft 522 kts 135°
2026-04-29 13:56 49.58792 15.91547 29270 ft 522 kts 136°
2026-04-29 13:56 49.53502 15.99167 29268 ft 523 kts 137°
2026-04-29 13:57 49.48179 16.06777 29266 ft 523 kts 137°
2026-04-29 13:57 49.43744 16.13179 29266 ft 524 kts 137°
2026-04-29 13:58 49.37597 16.22067 29266 ft 524 kts 137°
2026-04-29 13:58 49.32294 16.29741 29268 ft 524 kts 137°
2026-04-29 13:59 49.27013 16.37401 29278 ft 525 kts 137°
2026-04-29 13:59 49.21688 16.45121 29279 ft 526 kts 137°
2026-04-29 14:00 49.16397 16.52809 29283 ft 526 kts 137°
2026-04-29 14:00 49.11120 16.60483 29285 ft 525 kts 137°
2026-04-29 14:01 49.05851 16.68145 29286 ft 524 kts 137°
2026-04-29 14:01 49.00600 16.75795 29285 ft 525 kts 137°
2026-04-29 14:02 48.95246 16.83427 29288 ft 527 kts 139°
2026-04-29 14:02 48.89867 16.90983 29284 ft 528 kts 138°
2026-04-29 14:03 48.84584 16.98499 29273 ft 528 kts 139°
2026-04-29 14:03 48.79334 17.06291 29266 ft 530 kts 132°
2026-04-29 14:04 48.74936 17.15219 29272 ft 532 kts 123°
2026-04-29 14:04 48.70927 17.24597 29253 ft 534 kts 124°
2026-04-29 14:05 48.66753 17.33912 29246 ft 534 kts 124°
2026-04-29 14:05 48.62558 17.43139 29245 ft 535 kts 124°
2026-04-29 14:06 48.58346 17.52456 29237 ft 536 kts 124°
2026-04-29 14:06 48.54171 17.61736 29241 ft 536 kts 124°
2026-04-29 14:07 48.50008 17.71032 29231 ft 537 kts 125°
2026-04-29 14:07 48.45898 17.80214 29227 ft 538 kts 125°
2026-04-29 14:08 48.41735 17.89544 29223 ft 539 kts 125°
2026-04-29 14:08 48.37542 17.98970 29220 ft 540 kts 125°
2026-04-29 14:09 48.33363 18.08369 29211 ft 541 kts 125°
2026-04-29 14:09 48.29211 18.17739 29209 ft 542 kts 124°
2026-04-29 14:10 48.24955 18.27106 29203 ft 542 kts 126°
2026-04-29 14:10 48.20591 18.36313 29199 ft 543 kts 127°
2026-04-29 14:11 48.16244 18.45533 29193 ft 543 kts 126°
2026-04-29 14:11 48.11923 18.54812 29186 ft 543 kts 126°
2026-04-29 14:12 48.07592 18.64099 29186 ft 544 kts 126°
2026-04-29 14:12 48.03294 18.73335 29168 ft 543 kts 126°
2026-04-29 14:13 47.98999 18.82596 29167 ft 544 kts 126°
2026-04-29 14:13 47.94699 18.91883 29166 ft 546 kts 126°
2026-04-29 14:14 47.90400 19.01168 29160 ft 546 kts 126°
2026-04-29 14:14 47.86194 19.10286 29156 ft 547 kts 126°
2026-04-29 14:15 47.81866 19.19673 29157 ft 548 kts 126°
2026-04-29 14:15 47.77497 19.28946 29156 ft 548 kts 128°
2026-04-29 14:16 47.72996 19.38102 29161 ft 548 kts 128°
2026-04-29 14:16 47.68534 19.47234 29163 ft 550 kts 127°
2026-04-29 14:17 47.64043 19.56520 29163 ft 551 kts 127°
2026-04-29 14:17 47.59607 19.65691 29164 ft 551 kts 128°
2026-04-29 14:18 47.55168 19.74896 29155 ft 551 kts 128°
2026-04-29 14:18 47.50709 19.84146 29160 ft 552 kts 128°
2026-04-29 14:19 47.46267 19.93394 29164 ft 552 kts 128°
2026-04-29 14:19 47.41846 20.02608 29167 ft 551 kts 128°
2026-04-29 14:20 47.37408 20.11867 29177 ft 552 kts 127°
2026-04-29 14:20 47.33005 20.21074 29185 ft 553 kts 127°
2026-04-29 14:21 47.28505 20.30217 29192 ft 554 kts 129°
2026-04-29 14:21 47.23867 20.39317 29188 ft 554 kts 129°
2026-04-29 14:22 47.19311 20.48328 29183 ft 554 kts 129°
2026-04-29 14:22 47.14738 20.57466 29190 ft 554 kts 129°
2026-04-29 14:23 47.10157 20.66599 29178 ft 555 kts 129°
2026-04-29 14:23 47.05600 20.75700 29174 ft 556 kts 129°
2026-04-29 14:24 47.01054 20.84827 29171 ft 556 kts 129°
2026-04-29 14:24 46.96475 20.93994 29179 ft 557 kts 129°
2026-04-29 14:25 46.91900 21.03215 29183 ft 558 kts 129°
2026-04-29 14:25 46.87385 21.12274 29177 ft 558 kts 129°
2026-04-29 14:26 46.82856 21.21432 29175 ft 557 kts 129°
2026-04-29 14:26 46.78223 21.30476 29175 ft 555 kts 130°
2026-04-29 14:27 46.73600 21.39477 29177 ft 556 kts 129°
2026-04-29 14:28 46.67157 21.53566 29172 ft 559 kts 120°
2026-04-29 14:28 46.63544 21.63583 29167 ft 559 kts 119°
2026-04-29 14:29 46.59839 21.73435 29152 ft 557 kts 121°